Regional Weather Roundup
Issued by NWS Little Rock, AR

Home | Current Version | Previous Version | Text Only | Print | Product List | Glossary Off
Versions: 1 2 3 4 5 6 7 8 9 10 11 12 13 14 15 16 17 18 19 20 21 22 23 24 25 26 27

000
ASUS44 KLZK 191505
RWRLZK

WEATHER ROUNDUP FOR ARKANSAS
NATIONAL WEATHER SERVICE LITTLE ROCK AR
1000 AM CDT SAT APR 19 2014

NOTE: "FAIR" INDICATES FEW OR NO CLOUDS BELOW 12,000 FEET WITH NO
SIGNIFICANT WEATHER AND/OR OBSTRUCTIONS TO VISIBILITY.

ARZ001-003-010-029-191600-
NORTHWEST ARKANSAS

CITY           SKY/WX    TMP DP  RH WIND       PRES   REMARKS
FAYETTEVILLE   MOSUNNY   65  48  54 CALM      30.24S
FORT SMITH     SUNNY     65  51  60 NE6       30.23S
HARRISON       SUNNY     62  46  55 SE3       30.26S
BENTONVILLE    MOSUNNY   64  48  55 S8        30.25S
ROGERS         MOSUNNY   65  46  50 SE10      30.25S
SILOAM SPGS    MOSUNNY   64  45  48 SE6       30.25R
HIGHFILL       MOSUNNY   65  48  54 S7        30.24R
SPRINGDALE     SUNNY     64  50  59 SE5       30.26R
$$

ARZ004-005-016-191600-
NORTH CENTRAL ARKANSAS

CITY           SKY/WX    TMP DP  RH WIND       PRES   REMARKS
BATESVILLE     SUNNY     64  46  52 CALM      30.24S
FLIPPIN        SUNNY     61  43  51 E3        30.26S
MTN HOME       SUNNY     64  42  44 E6        30.24F
$$

ARZ040-041-191600-
WEST CENTRAL ARKANSAS

CITY           SKY/WX    TMP DP  RH WIND       PRES   REMARKS
MENA           SUNNY     64  50  59 NE3       30.24S
MOUNT IDA      SUNNY     62  50  64 CALM      30.22R
$$

ARZ009-017-025-026-028-191600-
NORTHEAST ARKANSAS

CITY           SKY/WX    TMP DP  RH WIND       PRES   REMARKS
CORNING        FAIR      66  48  52 NE6       30.26S
JONESBORO      SUNNY     65  47  52 E6        30.24S
NEWPORT        SUNNY     63  49  60 NW5       30.26S
WALNUT RIDGE   SUNNY     64  50  59 NE6       30.26S
BLYTHEVILLE    SUNNY     67  47  48 NE6       30.24S
$$

ARZ022-023-033-042-044-191600-
CENTRAL ARKANSAS

CITY           SKY/WX    TMP DP  RH WIND       PRES   REMARKS
LITTLE ROCK    MOSUNNY   67  53  61 CALM      30.24R
N LITTLE ROCK  MOSUNNY   66  56  69 NE2       30.24R
JACKSONVILLE   SUNNY     67  53  59 VRB1      30.24R
SEARCY         SUNNY     66  52  60 CALM      30.25S
HOT SPRINGS    SUNNY     66  53  63 CALM      30.24R
RUSSELLVILLE   SUNNY     65  51  60 CALM      30.24R
CLINTON        FAIR      64  52  63 CALM      30.26R
$$

ARZ036-191600-
EAST ARKANSAS

CITY           SKY/WX    TMP DP  RH WIND       PRES   REMARKS
WEST MEMPHIS   SUNNY     68  53  58 N3        30.22S
$$

ARZ050-053-066-070-073-191600-
SOUTHWEST ARKANSAS

CITY           SKY/WX    TMP DP  RH WIND       PRES   REMARKS
ARKADELPHIA    FAIR      66  55  67 CALM      30.25R
CAMDEN         SUNNY     64  55  72 MISG      30.23S
TEXARKANA      SUNNY     66  54  65 S7        30.23R
EL DORADO      MOSUNNY   65  55  70 VRB3      30.23R
DE QUEEN       SUNNY     65  51  60 E5        30.22R
$$

ARZ056-057-069-191600-
SOUTHEAST ARKANSAS

CITY           SKY/WX    TMP DP  RH WIND       PRES   REMARKS
PINE BLUFF     SUNNY     66  54  65 CALM      30.24R
STUTTGART      SUNNY     66  54  63 NE6       30.24S
MONTICELLO     SUNNY     69  53  56 CALM      30.22R

$$





USA.gov is the U.S. government's official web portal to all federal, state and local government web resources and services.